| time (UTC) | temp C | wind direction | speed KPH | gust KPH | rain 1hr cm | rain 24hr cm | rain mn cm | humidity % | barometer mb |
| 20260507112504 | 8 | 278 | 3.2 | 4.8 | 0.00 | 0.41 | 0.20 | 91 | 1008.7 |
| 20260507112008 | 8 | 274 | 3.2 | 4.8 | 0.00 | 0.41 | 0.20 | 91 | 1008.7 |
| 20260507111504 | 8 | 295 | 1.6 | 4.8 | 0.00 | 0.41 | 0.20 | 91 | 1008.6 |
| 20260507111007 | 8 | 263 | 1.6 | 4.8 | 0.00 | 0.41 | 0.20 | 91 | 1008.7 |
| 20260507110005 | 8 | 264 | 1.6 | 4.8 | 0.03 | 0.41 | 0.20 | 91 | 1008.8 |
| 20260507105504 | 8 | 289 | 1.6 | 4.8 | 0.03 | 0.41 | 0.20 | 91 | 1008.9 |
| 20260507105008 | 8 | 264 | 1.6 | 4.8 | 0.05 | 0.41 | 0.20 | 92 | 1009.0 |
| 20260507104504 | 8 | 264 | 1.6 | 3.2 | 0.05 | 0.41 | 0.20 | 91 | 1009.0 |
| 20260507103008 | 8 | 298 | 3.2 | 4.8 | 0.05 | 0.41 | 0.20 | 91 | 1008.5 |
| 20260507102509 | 8 | 299 | 0.0 | 1.6 | 0.08 | 0.41 | 0.20 | 91 | 1008.3 |
| 20260507102008 | 8 | 300 | 3.2 | 4.8 | 0.10 | 0.41 | 0.20 | 91 | 1008.4 |
| 20260507101508 | 8 | 295 | 3.2 | 11.3 | 0.13 | 0.41 | 0.20 | 91 | 1008.6 |
| 20260507101042 | 8 | 284 | 1.6 | 4.8 | 0.13 | 0.41 | 0.20 | 91 | 1008.5 |
| 20260507100504 | 9 | 284 | 3.2 | 4.8 | 0.10 | 0.38 | 0.18 | 90 | 1008.3 |
| 20260507100004 | 9 | 253 | 0.0 | 4.8 | 0.13 | 0.38 | 0.18 | 90 | 1008.2 |
| 20260507095007 | 9 | 280 | 3.2 | 9.7 | 0.10 | 0.36 | 0.15 | 90 | 1008.1 |
| 20260507094503 | 9 | 314 | 3.2 | 9.7 | 0.10 | 0.36 | 0.15 | 90 | 1008.0 |
| 20260507094008 | 9 | 298 | 8.0 | 14.5 | 0.10 | 0.36 | 0.15 | 90 | 1008.3 |
| 20260507093504 | 9 | 261 | 3.2 | 14.5 | 0.10 | 0.36 | 0.15 | 90 | 1008.3 |
| 20260507093008 | 10 | 282 | 3.2 | 9.7 | 0.10 | 0.36 | 0.15 | 90 | 1008.2 |
| 20260507092504 | 10 | 267 | 1.6 | 4.8 | 0.08 | 0.33 | 0.13 | 90 | 1008.2 |
| 20260507092008 | 10 | 266 | 1.6 | 4.8 | 0.05 | 0.30 | 0.10 | 89 | 1008.2 |
| 20260507091504 | 10 | 294 | 1.6 | 3.2 | 0.05 | 0.28 | 0.08 | 89 | 1008.3 |
| 20260507090504 | 10 | 266 | 4.8 | 8.0 | 0.05 | 0.28 | 0.08 | 89 | 1008.5 |
| 20260507085504 | 10 | 243 | 4.8 | 11.3 | 0.03 | 0.25 | 0.05 | 89 | 1008.2 |
| 20260507085008 | 10 | 236 | 3.2 | 12.9 | 0.03 | 0.25 | 0.05 | 89 | 1008.3 |
| 20260507084504 | 10 | 275 | 3.2 | 9.7 | 0.05 | 0.25 | 0.05 | 89 | 1008.2 |
| 20260507084009 | 10 | 268 | 4.8 | 9.7 | 0.05 | 0.25 | 0.05 | 89 | 1008.0 |
| 20260507083505 | 10 | 271 | 1.6 | 11.3 | 0.05 | 0.25 | 0.05 | 89 | 1008.1 |
| 20260507083009 | 10 | 281 | 3.2 | 16.1 | 0.05 | 0.25 | 0.05 | 89 | 1007.9 |
| 20260507082505 | 10 | 281 | 3.2 | 8.0 | 0.05 | 0.25 | 0.05 | 89 | 1007.8 |
| 20260507082008 | 10 | 280 | 3.2 | 12.9 | 0.05 | 0.25 | 0.05 | 88 | 1007.7 |
| 20260507081505 | 10 | 278 | 1.6 | 12.9 | 0.03 | 0.23 | 0.03 | 88 | 1007.7 |
| 20260507081008 | 11 | 295 | 1.6 | 4.8 | 0.03 | 0.23 | 0.03 | 87 | 1007.9 |
| 20260507080006 | 11 | 326 | 3.2 | 9.7 | 0.03 | 0.23 | 0.03 | 86 | 1008.0 |
| 20260507075504 | 11 | 308 | 3.2 | 9.7 | 0.03 | 0.23 | 0.03 | 85 | 1007.9 |
| 20260507075010 | 11 | 299 | 3.2 | 9.7 | 0.03 | 0.23 | 0.03 | 84 | 1007.7 |
| 20260507074513 | 11 | 270 | 4.8 | 12.9 | 0.00 | 0.20 | 0.00 | 83 | 1008.0 |
| 20260507074029 | 11 | 270 | 4.8 | 12.9 | 0.00 | 0.20 | 0.00 | 84 | 1008.0 |
| 20260507073514 | 11 | 271 | 8.0 | 19.3 | 0.00 | 0.20 | 0.00 | 84 | 1007.6 |
| 20260507073049 | 11 | 326 | 4.8 | 8.0 | 0.00 | 0.20 | 0.00 | 85 | 1007.2 |
| 20260507072505 | 11 | 309 | 3.2 | 4.8 | 0.00 | 0.20 | 0.00 | 85 | 1007.1 |
| 20260507072009 | 11 | 329 | 1.6 | 4.8 | 0.00 | 0.20 | 0.00 | 86 | 1007.3 |
| 20260507071505 | 11 | 285 | 3.2 | 12.9 | 0.00 | 0.20 | 0.00 | 86 | 1007.3 |
| 20260507071009 | 11 | 266 | 4.8 | 12.9 | 0.00 | 0.20 | 0.00 | 86 | 1007.4 |
| 20260507070009 | 12 | 287 | 3.2 | 8.0 | 0.00 | 0.20 | 0.00 | 87 | 1007.1 |
| 20260507065504 | 12 | 268 | 4.8 | 9.7 | 0.00 | 0.20 | 0.00 | 87 | 1007.2 |
| 20260507065008 | 12 | 277 | 1.6 | 9.7 | 0.00 | 0.20 | 0.00 | 86 | 1007.2 |
| 20260507064505 | 12 | 316 | 1.6 | 14.5 | 0.00 | 0.20 | 0.00 | 86 | 1007.2 |
| 20260507064008 | 12 | 265 | 3.2 | 12.9 | 0.00 | 0.20 | 0.00 | 87 | 1007.2 |
| 20260507063504 | 12 | 267 | 3.2 | 11.3 | 0.00 | 0.20 | 0.00 | 87 | 1007.2 |
| 20260507063008 | 12 | 264 | 4.8 | 12.9 | 0.00 | 0.20 | 0.00 | 87 | 1007.2 |
| 20260507062009 | 12 | 288 | 3.2 | 4.8 | 0.00 | 0.20 | 0.00 | 89 | 1006.8 |
| 20260507061505 | 12 | 311 | 3.2 | 4.8 | 0.00 | 0.20 | 0.00 | 89 | 1007.0 |
| 20260507061009 | 12 | 299 | 3.2 | 4.8 | 0.00 | 0.20 | 0.00 | 89 | 1007.0 |
| 20260507060505 | 13 | 291 | 3.2 | 4.8 | 0.00 | 0.20 | 0.00 | 90 | 1007.0 |
| 20260507060004 | 13 | 285 | 1.6 | 9.7 | 0.00 | 0.20 | 0.00 | 90 | 1007.1 |
| 20260507055009 | 13 | 289 | 4.8 | 12.9 | 0.00 | 0.20 | 0.00 | 89 | 1007.3 |
| 20260507054505 | 13 | 322 | 3.2 | 4.8 | 0.00 | 0.20 | 0.00 | 89 | 1007.5 |
| 20260507054008 | 13 | 295 | 8.0 | 16.1 | 0.00 | 0.20 | 0.00 | 89 | 1007.5 |
| 20260507053504 | 13 | 315 | 3.2 | 14.5 | 0.00 | 0.20 | 0.00 | 89 | 1007.3 |
| 20260507053008 | 13 | 265 | 4.8 | 16.1 | 0.00 | 0.20 | 0.00 | 89 | 1007.2 |
| 20260507052008 | 13 | 276 | 1.6 | 14.5 | 0.00 | 0.20 | 0.00 | 88 | 1006.9 |
| 20260507051008 | 13 | 279 | 8.0 | 19.3 | 0.00 | 0.20 | 0.00 | 88 | 1007.1 |
| 20260507050505 | 13 | 272 | 8.0 | 14.5 | 0.00 | 0.20 | 0.00 | 87 | 1007.1 |
| 20260507050005 | 13 | 278 | 4.8 | 11.3 | 0.00 | 0.20 | 0.00 | 87 | 1007.2 |
| 20260507045505 | 13 | 271 | 9.7 | 20.9 | 0.00 | 0.20 | 0.00 | 86 | 1007.3 |
| 20260507045008 | 13 | 260 | 8.0 | 27.4 | 0.00 | 0.20 | 0.00 | 87 | 1007.2 |
| 20260507044504 | 14 | 258 | 9.7 | 19.3 | 0.00 | 0.20 | 0.00 | 90 | 1007.2 |
| 20260507044008 | 14 | 254 | 6.4 | 19.3 | 0.00 | 0.20 | 0.00 | 92 | 1007.0 |
| 20260507043505 | 14 | 263 | 4.8 | 11.3 | 0.03 | 0.20 | 0.00 | 93 | 1006.9 |
| 20260507042504 | 14 | 263 | 4.8 | 11.3 | 0.03 | 0.20 | 0.00 | 93 | 1006.9 |
| 20260507042008 | 15 | 269 | 4.8 | 8.0 | 0.03 | 0.20 | 0.00 | 93 | 1007.1 |
| 20260507041504 | 15 | 238 | 3.2 | 9.7 | 0.03 | 0.20 | 0.00 | 93 | 1007.0 |
| 20260507041008 | 15 | 275 | 3.2 | 9.7 | 0.03 | 0.20 | 0.00 | 93 | 1007.1 |
| 20260507040505 | 15 | 266 | 4.8 | 11.3 | 0.03 | 0.20 | 0.00 | 93 | 1007.2 |
| 20260507040004 | 15 | 265 | 3.2 | 11.3 | 0.03 | 0.20 | 0.00 | 93 | 1007.1 |
| 20260507035008 | 15 | 256 | 8.0 | 14.5 | 0.03 | 0.20 | 0.20 | 93 | 1007.1 |
| 20260507034504 | 15 | 253 | 6.4 | 9.7 | 0.03 | 0.20 | 0.20 | 93 | 1006.8 |
| 20260507034008 | 15 | 239 | 8.0 | 16.1 | 0.03 | 0.20 | 0.20 | 93 | 1007.0 |
| 20260507033009 | 15 | 276 | 6.4 | 11.3 | 0.00 | 0.18 | 0.18 | 92 | 1006.9 |
| 20260507032504 | 15 | 303 | 4.8 | 19.3 | 0.00 | 0.18 | 0.18 | 92 | 1006.7 |
| 20260507032008 | 15 | 285 | 6.4 | 12.9 | 0.00 | 0.18 | 0.18 | 92 | 1006.4 |
| 20260507031504 | 15 | 285 | 6.4 | 16.1 | 0.00 | 0.18 | 0.18 | 92 | 1006.4 |
| 20260507031008 | 15 | 306 | 4.8 | 19.3 | 0.00 | 0.18 | 0.18 | 92 | 1006.2 |
| 20260507030505 | 15 | 248 | 4.8 | 19.3 | 0.00 | 0.18 | 0.18 | 92 | 1006.0 |
| 20260507030005 | 15 | 185 | 4.8 | 12.9 | 0.00 | 0.18 | 0.18 | 92 | 1006.1 |
| 20260507025504 | 15 | 301 | 8.0 | 19.3 | 0.00 | 0.18 | 0.18 | 92 | 1006.2 |
| 20260507024504 | 15 | 274 | 3.2 | 12.9 | 0.00 | 0.18 | 0.18 | 92 | 1006.3 |
| 20260507024008 | 15 | 163 | 4.8 | 19.3 | 0.00 | 0.18 | 0.18 | 92 | 1006.4 |
| 20260507023504 | 15 | 267 | 4.8 | 11.3 | 0.00 | 0.18 | 0.18 | 93 | 1006.5 |
| 20260507022008 | 14 | 131 | 4.8 | 9.7 | 0.00 | 0.18 | 0.18 | 93 | 1006.5 |
| 20260507021504 | 14 | 292 | 3.2 | 4.8 | 0.00 | 0.18 | 0.18 | 93 | 1006.5 |
| 20260507021009 | 14 | 248 | 4.8 | 12.9 | 0.00 | 0.18 | 0.18 | 93 | 1006.3 |
| 20260507020504 | 14 | 254 | 4.8 | 19.3 | 0.00 | 0.18 | 0.18 | 93 | 1006.4 |
| 20260507020004 | 14 | 280 | 3.2 | 14.5 | 0.00 | 0.18 | 0.18 | 93 | 1006.5 |
| 20260507015504 | 14 | 338 | 3.2 | 11.3 | 0.00 | 0.18 | 0.18 | 93 | 1006.5 |
| 20260507015008 | 14 | 319 | 3.2 | 14.5 | 0.00 | 0.18 | 0.18 | 92 | 1006.5 |
| 20260507014504 | 14 | 266 | 4.8 | 12.9 | 0.00 | 0.18 | 0.18 | 92 | 1006.6 |
| 20260507014008 | 14 | 42 | 4.8 | 11.3 | 0.00 | 0.18 | 0.18 | 92 | 1006.5 |
| 20260507013008 | 14 | 247 | 3.2 | 12.9 | 0.00 | 0.18 | 0.18 | 92 | 1006.7 |
| 20260507012504 | 14 | 245 | 3.2 | 16.1 | 0.00 | 0.18 | 0.18 | 92 | 1006.8 |
| 20260507012008 | 14 | 211 | 4.8 | 16.1 | 0.00 | 0.18 | 0.18 | 92 | 1006.8 |
| 20260507011008 | 14 | 97 | 4.8 | 16.1 | 0.00 | 0.18 | 0.18 | 92 | 1006.8 |
| 20260507010504 | 14 | 79 | 4.8 | 12.9 | 0.03 | 0.18 | 0.18 | 92 | 1006.8 |
| 20260507005008 | 14 | 111 | 4.8 | 19.3 | 0.03 | 0.18 | 0.18 | 92 | 1006.8 |
| 20260507004504 | 14 | 75 | 4.8 | 12.9 | 0.03 | 0.18 | 0.18 | 92 | 1006.8 |
| 20260507004008 | 14 | 284 | 3.2 | 14.5 | 0.03 | 0.18 | 0.18 | 92 | 1006.8 |
| 20260507003504 | 14 | 185 | 4.8 | 14.5 | 0.03 | 0.18 | 0.18 | 92 | 1006.9 |
| 20260507003008 | 14 | 117 | 4.8 | 14.5 | 0.05 | 0.18 | 0.18 | 92 | 1006.9 |
| 20260507002504 | 14 | 249 | 8.0 | 14.5 | 0.08 | 0.18 | 0.18 | 92 | 1006.8 |
| 20260507002007 | 14 | 286 | 4.8 | 16.1 | 0.08 | 0.18 | 0.18 | 92 | 1006.7 |
| 20260507001504 | 14 | 149 | 6.4 | 22.5 | 0.10 | 0.18 | 0.18 | 92 | 1006.6 |
| 20260507000005 | 14 | 296 | 4.8 | 19.3 | 0.08 | 0.15 | 0.15 | 92 | 1006.5 |
| 20260506235504 | 14 | 149 | 4.8 | 19.3 | 0.08 | 0.15 | 0.15 | 92 | 1006.6 |
| 20260506235008 | 15 | 159 | 4.8 | 8.0 | 0.08 | 0.15 | 0.15 | 92 | 1006.7 |
| 20260506234008 | 15 | 129 | 4.8 | 12.9 | 0.08 | 0.15 | 0.15 | 92 | 1006.6 |
| 20260506233505 | 15 | 137 | 3.2 | 9.7 | 0.08 | 0.15 | 0.15 | 92 | 1006.6 |
| 20260506233007 | 15 | 144 | 3.2 | 11.3 | 0.05 | 0.13 | 0.13 | 91 | 1006.5 |
| 20260506232503 | 15 | 218 | 3.2 | 8.0 | 0.03 | 0.10 | 0.10 | 91 | 1006.6 |
| 20260506232008 | 15 | 38 | 3.2 | 16.1 | 0.03 | 0.10 | 0.10 | 91 | 1006.7 |
| 20260506231505 | 15 | 153 | 6.4 | 19.3 | 0.00 | 0.08 | 0.08 | 91 | 1006.7 |
| 20260506231007 | 15 | 206 | 3.2 | 8.0 | 0.00 | 0.08 | 0.08 | 91 | 1006.6 |
| 20260506230504 | 15 | 138 | 4.8 | 19.3 | 0.00 | 0.08 | 0.08 | 91 | 1006.5 |
| 20260506230004 | 15 | 228 | 3.2 | 19.3 | 0.00 | 0.08 | 0.08 | 91 | 1006.6 |
| 20260506225504 | 15 | 167 | 6.4 | 14.5 | 0.03 | 0.08 | 0.08 | 91 | 1006.8 |
| 20260506225008 | 15 | 99 | 8.0 | 19.3 | 0.03 | 0.08 | 0.08 | 90 | 1006.8 |
| 20260506224504 | 15 | 103 | 8.0 | 12.9 | 0.03 | 0.08 | 0.08 | 90 | 1006.8 |
| 20260506223504 | 15 | 141 | 6.4 | 16.1 | 0.03 | 0.08 | 0.08 | 90 | 1006.8 |
| 20260506223008 | 15 | 135 | 8.0 | 14.5 | 0.03 | 0.08 | 0.08 | 90 | 1006.9 |
| 20260506222008 | 16 | 240 | 3.2 | 14.5 | 0.03 | 0.08 | 0.08 | 90 | 1007.1 |
| 20260506221504 | 16 | 138 | 6.4 | 19.3 | 0.03 | 0.08 | 0.08 | 89 | 1006.9 |
| 20260506221007 | 16 | 116 | 4.8 | 16.1 | 0.03 | 0.08 | 0.08 | 88 | 1007.1 |
| 20260506220504 | 16 | 232 | 3.2 | 9.7 | 0.03 | 0.08 | 0.08 | 88 | 1007.3 |
| 20260506215504 | 16 | 197 | 4.8 | 24.1 | 0.00 | 0.05 | 0.05 | 86 | 1007.5 |
| 20260506215009 | 16 | 144 | 9.7 | 20.9 | 0.00 | 0.05 | 0.05 | 85 | 1007.5 |
| 20260506214504 | 16 | 207 | 9.7 | 24.1 | 0.00 | 0.05 | 0.05 | 85 | 1007.5 |
| 20260506214008 | 16 | 115 | 8.0 | 19.3 | 0.00 | 0.05 | 0.05 | 85 | 1007.5 |
| 20260506213504 | 16 | 323 | 6.4 | 19.3 | 0.00 | 0.05 | 0.05 | 85 | 1007.6 |
| 20260506213008 | 16 | 182 | 4.8 | 22.5 | 0.00 | 0.05 | 0.05 | 85 | 1007.6 |
| 20260506212504 | 16 | 236 | 4.8 | 19.3 | 0.00 | 0.05 | 0.05 | 85 | 1007.6 |
| 20260506212007 | 16 | 356 | 6.4 | 14.5 | 0.00 | 0.05 | 0.05 | 85 | 1007.6 |
| 20260506211504 | 16 | 207 | 8.0 | 19.3 | 0.00 | 0.05 | 0.05 | 85 | 1007.7 |
| 20260506211008 | 16 | 272 | 4.8 | 19.3 | 0.03 | 0.05 | 0.05 | 85 | 1007.7 |
| 20260506210504 | 16 | 104 | 4.8 | 16.1 | 0.03 | 0.05 | 0.05 | 85 | 1007.7 |
| 20260506210004 | 16 | 275 | 9.7 | 19.3 | 0.03 | 0.05 | 0.05 | 84 | 1007.7 |
| 20260506205504 | 16 | 181 | 6.4 | 12.9 | 0.03 | 0.05 | 0.05 | 84 | 1007.9 |
| 20260506205008 | 16 | 169 | 6.4 | 14.5 | 0.03 | 0.05 | 0.05 | 83 | 1008.0 |
| 20260506204007 | 17 | 190 | 14.5 | 27.4 | 0.05 | 0.05 | 0.05 | 80 | 1007.9 |
| 20260506203505 | 17 | 157 | 4.8 | 19.3 | 0.05 | 0.05 | 0.05 | 79 | 1007.8 |
| 20260506203008 | 17 | 164 | 4.8 | 16.1 | 0.05 | 0.05 | 0.05 | 79 | 1007.9 |
| 20260506202008 | 17 | 225 | 6.4 | 19.3 | 0.05 | 0.05 | 0.05 | 80 | 1007.8 |
| 20260506201505 | 17 | 307 | 4.8 | 20.9 | 0.05 | 0.05 | 0.05 | 80 | 1007.6 |
| 20260506200505 | 17 | 147 | 3.2 | 12.9 | 0.03 | 0.03 | 0.03 | 80 | 1007.5 |
| 20260506200005 | 17 | 89 | 4.8 | 19.3 | 0.03 | 0.03 | 0.03 | 79 | 1007.6 |
| 20260506195504 | 17 | 170 | 4.8 | 11.3 | 0.03 | 0.03 | 0.03 | 79 | 1007.8 |
| 20260506195009 | 18 | 166 | 8.0 | 20.9 | 0.03 | 0.03 | 0.03 | 77 | 1008.0 |
| 20260506194504 | 18 | 280 | 3.2 | 8.0 | 0.03 | 0.03 | 0.03 | 76 | 1008.0 |
| 20260506194008 | 18 | 124 | 4.8 | 16.1 | 0.00 | 0.00 | 0.00 | 74 | 1008.1 |
| 20260506193505 | 18 | 99 | 8.0 | 22.5 | 0.00 | 0.00 | 0.00 | 73 | 1008.0 |
| 20260506193009 | 18 | 212 | 8.0 | 16.1 | 0.00 | 0.00 | 0.00 | 72 | 1008.0 |
| 20260506192505 | 19 | 131 | 8.0 | 14.5 | 0.00 | 0.00 | 0.00 | 70 | 1007.9 |
| 20260506192008 | 19 | 102 | 3.2 | 9.7 | 0.00 | 0.00 | 0.00 | 69 | 1008.0 |
| 20260506191505 | 20 | 283 | 8.0 | 19.3 | 0.00 | 0.00 | 0.00 | 67 | 1007.9 |
| 20260506191009 | 20 | 193 | 6.4 | 32.2 | 0.00 | 0.00 | 0.00 | 66 | 1007.8 |
| 20260506190504 | 20 | 170 | 8.0 | 19.3 | 0.00 | 0.00 | 0.00 | 65 | 1007.8 |
| 20260506190005 | 20 | 129 | 3.2 | 19.3 | 0.00 | 0.00 | 0.00 | 64 | 1007.9 |
| 20260506185504 | 20 | 193 | 3.2 | 19.3 | 0.00 | 0.00 | 0.00 | 63 | 1007.8 |
| 20260506184504 | 21 | 133 | 4.8 | 16.1 | 0.00 | 0.00 | 0.00 | 61 | 1007.8 |
| 20260506184008 | 21 | 246 | 6.4 | 14.5 | 0.00 | 0.00 | 0.00 | 61 | 1007.9 |
| 20260506183505 | 21 | 276 | 6.4 | 12.9 | 0.00 | 0.00 | 0.00 | 61 | 1007.8 |
| 20260506183009 | 21 | 200 | 3.2 | 12.9 | 0.00 | 0.00 | 0.00 | 62 | 1008.0 |
| 20260506182505 | 20 | 97 | 4.8 | 16.1 | 0.00 | 0.00 | 0.00 | 62 | 1007.9 |
| 20260506182008 | 21 | 194 | 8.0 | 16.1 | 0.00 | 0.00 | 0.00 | 61 | 1007.9 |
| 20260506181505 | 21 | 176 | 8.0 | 22.5 | 0.00 | 0.00 | 0.00 | 61 | 1008.1 |
| 20260506180006 | 21 | 160 | 9.7 | 20.9 | 0.00 | 0.00 | 0.00 | 61 | 1008.3 |
| 20260506175504 | 21 | 159 | 8.0 | 24.1 | 0.00 | 0.00 | 0.00 | 60 | 1008.3 |
| 20260506175008 | 21 | 204 | 8.0 | 19.3 | 0.00 | 0.00 | 0.00 | 60 | 1008.4 |
| 20260506174504 | 21 | 237 | 4.8 | 20.9 | 0.00 | 0.00 | 0.00 | 60 | 1008.5 |
| 20260506174008 | 21 | 98 | 4.8 | 20.9 | 0.00 | 0.00 | 0.00 | 61 | 1008.4 |
| 20260506173505 | 21 | 189 | 9.7 | 24.1 | 0.00 | 0.00 | 0.00 | 60 | 1008.5 |
| 20260506173009 | 21 | 190 | 8.0 | 35.4 | 0.00 | 0.00 | 0.00 | 60 | 1008.6 |
| 20260506172506 | 21 | 153 | 11.3 | 33.8 | 0.00 | 0.00 | 0.00 | 59 | 1008.4 |
| 20260506172008 | 21 | 187 | 14.5 | 32.2 | 0.00 | 0.00 | 0.00 | 60 | 1008.4 |
| 20260506171505 | 21 | 171 | 8.0 | 16.1 | 0.00 | 0.00 | 0.00 | 62 | 1008.5 |
| 20260506171008 | 21 | 118 | 11.3 | 20.9 | 0.00 | 0.00 | 0.00 | 61 | 1008.4 |
| 20260506165008 | 21 | 213 | 9.7 | 20.9 | 0.00 | 0.00 | 0.00 | 61 | 1008.7 |
| 20260506164504 | 21 | 111 | 6.4 | 16.1 | 0.00 | 0.00 | 0.00 | 61 | 1008.6 |
| 20260506164008 | 21 | 146 | 11.3 | 24.1 | 0.00 | 0.00 | 0.00 | 61 | 1008.8 |
| 20260506163505 | 21 | 124 | 9.7 | 24.1 | 0.00 | 0.00 | 0.00 | 60 | 1008.8 |
| 20260506163008 | 21 | 186 | 14.5 | 22.5 | 0.00 | 0.00 | 0.00 | 60 | 1008.9 |
| 20260506162504 | 21 | 7 | 3.2 | 16.1 | 0.00 | 0.00 | 0.00 | 60 | 1009.1 |
| 20260506162008 | 21 | 168 | 4.8 | 16.1 | 0.00 | 0.00 | 0.00 | 60 | 1009.0 |
| 20260506161505 | 21 | 137 | 8.0 | 14.5 | 0.00 | 0.00 | 0.00 | 60 | 1009.1 |
| 20260506161008 | 21 | 84 | 8.0 | 16.1 | 0.00 | 0.00 | 0.00 | 59 | 1009.3 |
| 20260506160505 | 21 | 129 | 9.7 | 25.7 | 0.00 | 0.00 | 0.00 | 59 | 1009.4 |
| 20260506155504 | 22 | 135 | 8.0 | 14.5 | 0.00 | 0.00 | 0.00 | 58 | 1009.6 |
| 20260506155008 | 22 | 145 | 8.0 | 24.1 | 0.00 | 0.00 | 0.00 | 58 | 1009.7 |
| 20260506154504 | 22 | 245 | 3.2 | 12.9 | 0.00 | 0.00 | 0.00 | 59 | 1009.6 |
| 20260506154009 | 21 | 157 | 6.4 | 27.4 | 0.00 | 0.00 | 0.00 | 58 | 1009.8 |
| 20260506153504 | 22 | 128 | 11.3 | 25.7 | 0.00 | 0.00 | 0.00 | 58 | 1009.9 |
| 20260506153010 | 22 | 206 | 6.4 | 16.1 | 0.00 | 0.00 | 0.00 | 58 | 1009.9 |
| 20260506152504 | 22 | 242 | 9.7 | 19.3 | 0.00 | 0.00 | 0.00 | 58 | 1010.0 |
| 20260506152008 | 22 | 278 | 11.3 | 22.5 | 0.00 | 0.00 | 0.00 | 59 | 1010.2 |
| 20260506151505 | 21 | 242 | 9.7 | 22.5 | 0.00 | 0.00 | 0.00 | 59 | 1010.2 |
| 20260506151014 | 21 | 69 | 4.8 | 16.1 | 0.00 | 0.00 | 0.00 | 61 | 1010.3 |
| 20260506150005 | 21 | 191 | 11.3 | 24.1 | 0.00 | 0.00 | 0.00 | 61 | 1010.5 |
| 20260506145504 | 21 | 124 | 11.3 | 27.4 | 0.00 | 0.00 | 0.00 | 61 | 1010.5 |
| 20260506145009 | 21 | 170 | 4.8 | 12.9 | 0.00 | 0.00 | 0.00 | 62 | 1010.4 |
| 20260506144504 | 21 | 137 | 8.0 | 19.3 | 0.00 | 0.00 | 0.00 | 62 | 1010.3 |
| 20260506144008 | 20 | 105 | 8.0 | 16.1 | 0.00 | 0.00 | 0.00 | 63 | 1010.3 |
| 20260506143504 | 20 | 213 | 3.2 | 12.9 | 0.00 | 0.00 | 0.00 | 65 | 1010.3 |
| 20260506143008 | 20 | 114 | 12.9 | 22.5 | 0.00 | 0.00 | 0.00 | 64 | 1010.2 |
| 20260506142504 | 20 | 190 | 9.7 | 20.9 | 0.00 | 0.00 | 0.00 | 66 | 1010.3 |
| 20260506142008 | 20 | 140 | 8.0 | 22.5 | 0.00 | 0.00 | 0.00 | 67 | 1010.2 |
| 20260506141504 | 20 | 161 | 6.4 | 16.1 | 0.00 | 0.00 | 0.00 | 67 | 1010.3 |
| 20260506140504 | 19 | 28 | 3.2 | 11.3 | 0.00 | 0.00 | 0.00 | 69 | 1010.4 |
| 20260506135505 | 18 | 60 | 6.4 | 12.9 | 0.00 | 0.00 | 0.00 | 69 | 1010.4 |
| 20260506135008 | 18 | 236 | 4.8 | 11.3 | 0.00 | 0.00 | 0.00 | 70 | 1010.5 |
| 20260506134505 | 18 | 235 | 8.0 | 19.3 | 0.00 | 0.00 | 0.00 | 70 | 1010.7 |
| 20260506134007 | 18 | 4 | 3.2 | 16.1 | 0.00 | 0.00 | 0.00 | 71 | 1010.8 |
| 20260506133505 | 18 | 266 | 8.0 | 12.9 | 0.00 | 0.00 | 0.00 | 71 | 1010.9 |
| 20260506132504 | 18 | 196 | 6.4 | 20.9 | 0.00 | 0.00 | 0.00 | 72 | 1010.9 |
| 20260506132009 | 18 | 215 | 8.0 | 27.4 | 0.00 | 0.00 | 0.00 | 72 | 1010.8 |
| 20260506131504 | 18 | 224 | 6.4 | 16.1 | 0.00 | 0.00 | 0.00 | 73 | 1010.8 |
| 20260506131007 | 17 | 283 | 6.4 | 22.5 | 0.00 | 0.00 | 0.00 | 73 | 1010.8 |
| 20260506130505 | 17 | 118 | 8.0 | 20.9 | 0.00 | 0.00 | 0.00 | 72 | 1010.9 |
| 20260506130005 | 18 | 183 | 8.0 | 16.1 | 0.00 | 0.00 | 0.00 | 72 | 1010.8 |
| 20260506125504 | 18 | 175 | 6.4 | 19.3 | 0.00 | 0.00 | 0.00 | 73 | 1010.8 |
| 20260506125007 | 17 | 156 | 8.0 | 20.9 | 0.00 | 0.00 | 0.00 | 74 | 1010.9 |
| 20260506124504 | 17 | 195 | 8.0 | 16.1 | 0.00 | 0.00 | 0.00 | 76 | 1010.9 |
| 20260506123504 | 17 | 13 | 4.8 | 22.5 | 0.00 | 0.00 | 0.00 | 76 | 1011.1 |
| 20260506123008 | 17 | 193 | 4.8 | 16.1 | 0.00 | 0.00 | 0.00 | 76 | 1011.0 |
| 20260506122504 | 17 | 141 | 6.4 | 16.1 | 0.00 | 0.00 | 0.00 | 76 | 1010.9 |
| 20260506121008 | 16 | 121 | 8.0 | 19.3 | 0.00 | 0.00 | 0.00 | 78 | 1010.9 |
| 20260506120504 | 16 | 273 | 9.7 | 20.9 | 0.00 | 0.00 | 0.00 | 78 | 1011.0 |
| 20260506120004 | 16 | 208 | 6.4 | 19.3 | 0.00 | 0.00 | 0.00 | 78 | 1011.1 |
| 20260506115504 | 16 | 161 | 9.7 | 19.3 | 0.00 | 0.00 | 0.00 | 78 | 1011.0 |
| 20260506114504 | 16 | 147 | 4.8 | 14.5 | 0.00 | 0.00 | 0.00 | 78 | 1011.3 |